Michigan City, IN

4:57 PM CDT on May 26, 2018 (GMT -0500)
Michigan City Municipal

Weather History for KMGC - November, 2012

Change the Weather History Date:

Thursday, November 1, 2012

  Actual Average (KSBN) Record (KSBN)
Temperature  
Mean Temperature 42 °F -  
Max Temperature 50 °F 59 °F 82 °F (1950)
Min Temperature 35 °F 42 °F 20 °F (1906)
Degree Days  
Heating Degree Days 22    
Moisture  
Dew Point 28 °F    
Average Humidity 56    
Maximum Humidity 81    
Minimum Humidity 32    
Precipitation  
Precipitation 0.00 in - - ()
Sea Level Pressure  
Sea Level Pressure 29.83 in    
Wind  
Wind Speed 7 mph ()    
Max Wind Speed 14 mph    
Max Gust Speed 20 mph    
Visibility 10.0 miles    
Events      
Averages and records for this station are not official NWS values.
T = Trace of Precipitation, MM = Missing Value Source: Averaged Metar Reports

Daily Weather History Graph

Daily Weather History Graph

Search for Another Location

Airport or City:

Astronomy

Nov. 01, 2012 Rise Set
Actual Time 7:19 AM CDT 5:41 PM CDT
Civil Twilight 6:51 AM CDT 6:10 PM CDT
Nautical Twilight 6:18 AM CDT 6:42 PM CDT
Astronomical Twilight 5:45 AM CDT 7:15 PM CDT
Moon 7:36 PM CDT (11/1) 9:53 AM CDT (11/1)
Length of Visible Light 11h 19m
Length of Day
10h 21m
Waning Gibbous, 93% of the Moon is Illuminated
Nov 1
Waning Gibbous
Nov 6
Last Quarter
Nov 13
New
Nov 20
First Quarter
Nov 28
Full

Hourly Weather History & Observations

Time (CDT) Temp. Windchill Dew Point Humidity Pressure Visibility Wind Dir Wind Speed Gust Speed Precip Events Conditions
12:15 AM 42.8 °F 37.0 °F 28.4 °F 57% 29.81 in 10.0 mi NW 10.4 mph 17.3 mph N/A   Clear
12:35 AM 42.8 °F 37.0 °F 28.4 °F 57% 29.81 in 10.0 mi NNW 10.4 mph 17.3 mph N/A   Clear
1:15 AM 42.8 °F 38.6 °F 28.4 °F 57% 29.81 in 10.0 mi NNW 6.9 mph - N/A   Clear
1:35 AM 42.8 °F 38.6 °F 26.6 °F 53% 29.80 in 10.0 mi NW 6.9 mph 17.3 mph N/A   Clear
1:55 AM 42.8 °F 37.5 °F 28.4 °F 57% 29.81 in 10.0 mi NW 9.2 mph 16.1 mph N/A   Clear
2:15 AM 42.8 °F 37.0 °F 26.6 °F 53% 29.81 in 10.0 mi NW 10.4 mph 18.4 mph N/A   Clear
2:35 AM 42.8 °F 37.0 °F 28.4 °F 57% 29.81 in 10.0 mi NW 10.4 mph 18.4 mph N/A   Clear
2:55 AM 41.0 °F 36.4 °F 26.6 °F 57% 29.81 in 10.0 mi NW 6.9 mph - N/A   Clear
3:15 AM 41.0 °F 35.8 °F 28.4 °F 61% 29.81 in 10.0 mi NNW 8.1 mph - N/A   Clear
3:35 AM 41.0 °F 38.0 °F 28.4 °F 61% 29.81 in 10.0 mi NW 4.6 mph 17.3 mph N/A   Clear
4:15 AM 41.0 °F 36.4 °F 30.2 °F 65% 29.81 in 10.0 mi NW 6.9 mph - N/A   Clear
4:35 AM 41.0 °F 36.4 °F 30.2 °F 65% 29.81 in 10.0 mi NW 6.9 mph - N/A   Clear
4:55 AM 39.2 °F 33.6 °F 30.2 °F 70% 29.81 in 10.0 mi NW 8.1 mph - N/A   Clear
5:15 AM 39.2 °F 35.0 °F 30.2 °F 70% 29.82 in 10.0 mi NW 5.8 mph - N/A   Clear
5:35 AM 41.0 °F 36.4 °F 30.2 °F 65% 29.82 in 10.0 mi NW 6.9 mph - N/A   Clear
5:55 AM 41.0 °F 35.8 °F 32.0 °F 70% 29.82 in 10.0 mi NW 8.1 mph 18.4 mph N/A   Mostly Cloudy
6:15 AM 41.0 °F 35.8 °F 32.0 °F 70% 29.82 in 10.0 mi NW 8.1 mph 17.3 mph N/A   Overcast
6:35 AM 39.2 °F 33.6 °F 32.0 °F 75% 29.82 in 10.0 mi NW 8.1 mph - N/A   Mostly Cloudy
6:55 AM 39.2 °F 34.2 °F 30.2 °F 70% 29.83 in 10.0 mi NW 6.9 mph - N/A   Scattered Clouds
7:15 AM 39.2 °F 35.0 °F 30.2 °F 70% 29.83 in 10.0 mi NW 5.8 mph - N/A   Clear
7:55 AM 41.0 °F 35.8 °F 30.2 °F 65% 29.84 in 10.0 mi NW 8.1 mph - N/A   Mostly Cloudy
8:15 AM 42.8 °F 38.0 °F 28.4 °F 57% 29.85 in 10.0 mi NW 8.1 mph - N/A   Overcast
8:35 AM 41.0 °F 35.2 °F 30.2 °F 65% 29.85 in 10.0 mi NW 9.2 mph 16.1 mph N/A   Overcast
8:55 AM 42.8 °F 38.0 °F 28.4 °F 57% 29.85 in 10.0 mi WNW 8.1 mph - N/A   Overcast
9:15 AM 42.8 °F 35.8 °F 30.2 °F 61% 29.85 in 10.0 mi WNW 13.8 mph - N/A   Overcast
9:35 AM 44.6 °F 38.4 °F 30.2 °F 57% 29.86 in 10.0 mi WNW 12.7 mph 18.4 mph N/A   Overcast
10:15 AM 42.8 °F 38.0 °F 28.4 °F 57% 29.86 in 10.0 mi NW 8.1 mph - N/A   Overcast
10:35 AM 42.8 °F 36.2 °F 28.4 °F 57% 29.87 in 10.0 mi NW 12.7 mph 17.3 mph N/A   Overcast
10:55 AM 44.6 °F 38.8 °F 28.4 °F 53% 29.87 in 10.0 mi NW 11.5 mph 17.3 mph N/A   Overcast
11:15 AM 44.6 °F 39.7 °F 28.4 °F 53% 29.87 in 10.0 mi NW 9.2 mph 17.3 mph N/A   Overcast
11:35 AM 44.6 °F 39.7 °F 26.6 °F 49% 29.86 in 10.0 mi NW 9.2 mph - N/A   Overcast
11:55 AM 46.4 °F 41.5 °F 26.6 °F 46% 29.86 in 10.0 mi NNW 10.4 mph 19.6 mph N/A   Mostly Cloudy
12:15 PM 46.4 °F 40.4 °F 26.6 °F 46% 29.85 in 10.0 mi NW 13.8 mph - N/A   Clear
12:35 PM 46.4 °F 40.4 °F 26.6 °F 46% 29.85 in 10.0 mi WNW 13.8 mph 17.3 mph N/A   Clear
12:55 PM 46.4 °F 42.9 °F 24.8 °F 43% 29.84 in 10.0 mi NW 6.9 mph - N/A   Mostly Cloudy
1:15 PM 48.2 °F - 26.6 °F 43% 29.83 in 10.0 mi West 10.4 mph - N/A   Overcast
1:35 PM 46.4 °F 41.5 °F 23.0 °F 40% 29.83 in 10.0 mi WNW 10.4 mph - N/A   Overcast
1:55 PM 46.4 °F 41.1 °F 19.4 °F 34% 29.83 in 10.0 mi WNW 11.5 mph - N/A   Mostly Cloudy
2:15 PM 48.2 °F - 19.4 °F 32% 29.82 in 10.0 mi NW 10.4 mph 17.3 mph N/A   Mostly Cloudy
2:35 PM 50.0 °F - 24.8 °F 37% 29.82 in 10.0 mi NW 5.8 mph - N/A   Scattered Clouds
2:55 PM 48.2 °F - 23.0 °F 37% 29.82 in 10.0 mi WNW 9.2 mph - N/A   Clear
3:15 PM 46.4 °F 42.9 °F 23.0 °F 40% 29.82 in 10.0 mi NW 6.9 mph - N/A   Mostly Cloudy
3:35 PM 46.4 °F 45.2 °F 23.0 °F 40% 29.82 in 10.0 mi NW 3.5 mph - N/A   Overcast
3:55 PM 46.4 °F - 24.8 °F 43% 29.82 in 10.0 mi Calm Calm - N/A   Overcast
4:15 PM 46.4 °F 44.3 °F 26.6 °F 46% 29.82 in 10.0 mi WNW 4.6 mph - N/A   Overcast
4:35 PM 46.4 °F - 26.6 °F 46% 29.82 in 10.0 mi Calm Calm - N/A   Overcast
4:55 PM 46.4 °F 45.2 °F 26.6 °F 46% 29.82 in 10.0 mi NW 3.5 mph - N/A   Overcast
5:15 PM 46.4 °F 45.2 °F 26.6 °F 46% 29.83 in 10.0 mi NW 3.5 mph - N/A   Overcast
5:35 PM 44.6 °F - 28.4 °F 53% 29.83 in 10.0 mi Calm Calm - N/A   Overcast
5:55 PM 44.6 °F - 28.4 °F 53% 29.83 in 10.0 mi Calm Calm - N/A   Overcast
6:15 PM 44.6 °F - 28.4 °F 53% 29.84 in 10.0 mi Calm Calm - N/A   Scattered Clouds
6:35 PM 41.0 °F - 30.2 °F 65% 29.84 in 10.0 mi Calm Calm - N/A   Scattered Clouds
6:55 PM 41.0 °F - 28.4 °F 61% 29.85 in 10.0 mi Calm Calm - N/A   Overcast
7:15 PM 37.4 °F - 30.2 °F 75% 29.84 in 10.0 mi Calm Calm - N/A   Mostly Cloudy
7:35 PM 39.2 °F - 30.2 °F 70% 29.85 in 10.0 mi Calm Calm - N/A   Scattered Clouds
7:55 PM 35.6 °F - 30.2 °F 81% 29.85 in 10.0 mi Calm Calm - N/A   Mostly Cloudy
8:15 PM 37.4 °F - 30.2 °F 75% 29.85 in 10.0 mi Calm Calm - N/A   Overcast
8:55 PM 39.2 °F 35.9 °F 32.0 °F 75% 29.86 in 10.0 mi NNW 4.6 mph - N/A   Overcast
11:35 PM 44.6 °F 39.2 °F 32.0 °F 61% 29.86 in 10.0 mi NNW 10.4 mph 16.1 mph N/A   Unknown
11:55 PM 44.6 °F 39.7 °F 32.0 °F 61% 29.87 in 10.0 mi NNW 9.2 mph - N/A   Overcast